FHY110 LTBH-LTAJ

Flight info

Callsign FHY110
Flight time 1h 22m
Altitude 37000
Route BIG DCT ERVAG UT179 KFK UL620 MUT DCT ADKAR DCT MILBA UW74 KOZAN
Aircraft A320/M-SDE3FGHIRWY/LB1

Departure

Time 2026-05-06 11:34
Airport Çanakkale Airport (LTBH)

Arrival

Time 2026-05-06 12:57
Airport Gaziantep Oğuzeli International Airport (LTAJ)
Time Latitude Longitude Altitude Speed Heading
2026-05-06 11:18 40.13846 26.42389 27 ft 0 kts 310°
2026-05-06 11:28 40.13837 26.42403 27 ft 4 kts 301°
2026-05-06 11:28 40.13829 26.42434 28 ft 4 kts 263°
2026-05-06 11:28 40.13837 26.42460 29 ft 1 kts 221°
2026-05-06 11:28 40.13838 26.42461 29 ft 0 kts 221°
2026-05-06 11:30 40.13830 26.42454 28 ft 9 kts 213°
2026-05-06 11:30 40.13761 26.42492 29 ft 13 kts 132°
2026-05-06 11:30 40.13706 26.42578 24 ft 12 kts 118°
2026-05-06 11:31 40.13727 26.42658 27 ft 9 kts 42°
2026-05-06 11:31 40.13799 26.42739 27 ft 15 kts 41°
2026-05-06 11:31 40.13874 26.42823 28 ft 13 kts 41°
2026-05-06 11:31 40.13933 26.42891 30 ft 9 kts 41°
2026-05-06 11:32 40.13992 26.42959 30 ft 16 kts 41°
2026-05-06 11:32 40.14114 26.43097 29 ft 30 kts 41°
2026-05-06 11:32 40.14266 26.43207 27 ft 22 kts
2026-05-06 11:32 40.14329 26.43317 27 ft 13 kts 146°
2026-05-06 11:33 40.14279 26.43284 26 ft 0 kts 220°
2026-05-06 11:33 40.14278 26.43283 26 ft 0 kts 220°
2026-05-06 11:33 40.14123 26.43106 29 ft 73 kts 221°
2026-05-06 11:34 40.13523 26.42426 31 ft 151 kts 220°
2026-05-06 11:34 40.12646 26.41450 493 ft 175 kts 220°
2026-05-06 11:34 40.11671 26.40351 1169 ft 196 kts 223°
2026-05-06 11:34 40.10580 26.39106 1792 ft 221 kts 223°
2026-05-06 11:35 40.09418 26.37777 2426 ft 224 kts 223°
2026-05-06 11:35 40.08261 26.36454 3056 ft 227 kts 223°
2026-05-06 11:35 40.07067 26.35095 3681 ft 231 kts 223°
2026-05-06 11:35 40.05668 26.34024 4310 ft 240 kts 192°
2026-05-06 11:36 40.04014 26.34240 4957 ft 246 kts 152°
2026-05-06 11:36 40.02647 26.35606 5603 ft 254 kts 130°
2026-05-06 11:36 40.01474 26.37449 6109 ft 274 kts 125°
2026-05-06 11:36 40.00330 26.39479 6854 ft 283 kts 123°
2026-05-06 11:37 39.99358 26.41715 7632 ft 284 kts 106°
2026-05-06 11:37 39.99029 26.44234 8455 ft 283 kts 85°
2026-05-06 11:37 39.99442 26.46713 9290 ft 281 kts 64°
2026-05-06 11:37 40.00206 26.49073 10130 ft 284 kts 64°
2026-05-06 11:38 40.01008 26.51506 10536 ft 304 kts 63°
2026-05-06 11:38 40.01881 26.54145 10773 ft 327 kts 64°
2026-05-06 11:38 40.02806 26.56950 11117 ft 344 kts 64°
2026-05-06 11:38 40.03756 26.59849 11771 ft 350 kts 64°
2026-05-06 11:39 40.04705 26.62759 12475 ft 355 kts 64°
2026-05-06 11:39 40.05688 26.65781 13205 ft 359 kts 64°
2026-05-06 11:39 40.06658 26.68768 13889 ft 364 kts 64°
2026-05-06 11:39 40.07651 26.71825 14512 ft 368 kts 64°
2026-05-06 11:40 40.08655 26.74917 15136 ft 371 kts 64°
2026-05-06 11:40 40.09666 26.78038 15752 ft 375 kts 64°
2026-05-06 11:40 40.10691 26.81199 16367 ft 379 kts 64°
2026-05-06 11:40 40.11724 26.84392 16954 ft 383 kts 64°
2026-05-06 11:41 40.12762 26.87609 17581 ft 387 kts 63°
2026-05-06 11:41 40.13808 26.90863 18184 ft 391 kts 63°
2026-05-06 11:41 40.14867 26.94156 18729 ft 395 kts 63°
2026-05-06 11:41 40.15934 26.97475 19263 ft 398 kts 63°
2026-05-06 11:42 40.17014 27.00825 19781 ft 401 kts 63°
2026-05-06 11:42 40.18107 27.04201 20327 ft 405 kts 63°
2026-05-06 11:42 40.19211 27.07611 20840 ft 408 kts 63°
2026-05-06 11:42 40.20317 27.11049 21332 ft 411 kts 63°
2026-05-06 11:43 40.21428 27.14512 21821 ft 415 kts 63°
2026-05-06 11:43 40.22545 27.18006 22319 ft 418 kts 63°
2026-05-06 11:43 40.23652 27.21480 22809 ft 420 kts 63°
2026-05-06 11:44 40.25882 27.28609 23700 ft 429 kts 66°
2026-05-06 11:44 40.26579 27.32445 24067 ft 438 kts 78°
2026-05-06 11:44 40.26708 27.36513 24429 ft 447 kts 89°
2026-05-06 11:44 40.26243 27.40518 24782 ft 455 kts 101°
2026-05-06 11:45 40.25141 27.44489 25132 ft 463 kts 113°
2026-05-06 11:45 40.23617 27.48219 25493 ft 466 kts 116°
2026-05-06 11:45 40.22078 27.51905 25834 ft 468 kts 116°
2026-05-06 11:45 40.20513 27.55656 26173 ft 471 kts 116°
2026-05-06 11:46 40.18943 27.59434 26464 ft 473 kts 116°
2026-05-06 11:46 40.17370 27.63221 26792 ft 476 kts 116°
2026-05-06 11:46 40.15784 27.67029 27107 ft 478 kts 116°
2026-05-06 11:46 40.14186 27.70857 27412 ft 481 kts 116°
2026-05-06 11:47 40.12579 27.74707 27708 ft 483 kts 116°
2026-05-06 11:47 40.10965 27.78566 28001 ft 485 kts 116°
2026-05-06 11:47 40.09343 27.82438 28277 ft 487 kts 116°
2026-05-06 11:47 40.07710 27.86332 28554 ft 489 kts 116°
2026-05-06 11:48 40.06070 27.90236 28828 ft 491 kts 116°
2026-05-06 11:48 40.04424 27.94152 29087 ft 493 kts 116°
2026-05-06 11:48 40.02765 27.98093 29333 ft 495 kts 116°
2026-05-06 11:48 40.01129 28.01971 29582 ft 497 kts 116°
2026-05-06 11:49 39.99434 28.05978 29883 ft 497 kts 116°
2026-05-06 11:49 39.97758 28.09927 30249 ft 497 kts 116°
2026-05-06 11:49 39.96087 28.13862 30546 ft 496 kts 116°
2026-05-06 11:49 39.94440 28.17740 30833 ft 495 kts 116°
2026-05-06 11:50 39.92774 28.21662 31125 ft 495 kts 116°
2026-05-06 11:50 39.91112 28.25578 31421 ft 494 kts 116°
2026-05-06 11:50 39.89447 28.29493 31718 ft 493 kts 116°
2026-05-06 11:50 39.87784 28.33395 32016 ft 492 kts 116°
2026-05-06 11:51 39.86119 28.37291 32340 ft 492 kts 116°
2026-05-06 11:51 39.84453 28.41179 32633 ft 491 kts 117°
2026-05-06 11:51 39.82791 28.45053 32922 ft 491 kts 116°
2026-05-06 11:51 39.81131 28.48926 33208 ft 490 kts 116°
2026-05-06 11:52 39.79471 28.52806 33501 ft 490 kts 116°
2026-05-06 11:52 39.77812 28.56683 33785 ft 489 kts 116°
2026-05-06 11:52 39.76157 28.60544 34079 ft 489 kts 116°
2026-05-06 11:52 39.74499 28.64400 34331 ft 488 kts 116°
2026-05-06 11:53 39.72839 28.68248 34588 ft 488 kts 117°
2026-05-06 11:53 39.71176 28.72093 34830 ft 487 kts 117°
2026-05-06 11:53 39.69515 28.75928 35062 ft 487 kts 117°
2026-05-06 11:53 39.67856 28.79761 35278 ft 486 kts 117°
2026-05-06 11:54 39.66216 28.83540 35476 ft 487 kts 117°
2026-05-06 11:54 39.64551 28.87368 35690 ft 486 kts 117°
2026-05-06 11:54 39.62892 28.91183 35881 ft 486 kts 117°
2026-05-06 11:54 39.61234 28.95004 36068 ft 486 kts 117°
2026-05-06 11:55 39.59580 28.98813 36284 ft 485 kts 117°
2026-05-06 11:55 39.57921 29.02626 36488 ft 485 kts 118°
2026-05-06 11:55 39.56262 29.06427 36688 ft 484 kts 118°
2026-05-06 11:55 39.54598 29.10231 36862 ft 484 kts 118°
2026-05-06 11:56 39.52940 29.14020 37036 ft 484 kts 118°
2026-05-06 11:56 39.51274 29.17822 37076 ft 487 kts 118°
2026-05-06 11:56 39.47902 29.25507 37087 ft 493 kts 118°
2026-05-06 11:57 39.44494 29.33261 37076 ft 497 kts 118°
2026-05-06 11:57 39.41064 29.41051 37077 ft 499 kts 118°
2026-05-06 11:58 39.37622 29.48835 37073 ft 499 kts 118°
2026-05-06 11:58 39.34168 29.56608 37084 ft 499 kts 118°
2026-05-06 11:59 39.30711 29.64381 37079 ft 499 kts 118°
2026-05-06 11:59 39.27255 29.72168 37077 ft 499 kts 118°
2026-05-06 12:00 39.23788 29.79933 37078 ft 499 kts 119°
2026-05-06 12:00 39.20333 29.87654 37095 ft 499 kts 119°
2026-05-06 12:01 39.16857 29.95403 37101 ft 499 kts 119°
2026-05-06 12:01 39.13371 30.03139 37088 ft 499 kts 119°
2026-05-06 12:02 39.09877 30.10875 37092 ft 500 kts 119°
2026-05-06 12:02 39.06241 30.18491 37103 ft 500 kts 127°
2026-05-06 12:03 39.01623 30.25180 37107 ft 500 kts 133°
2026-05-06 12:03 38.96907 30.31749 37111 ft 500 kts 133°
2026-05-06 12:04 38.92192 30.38324 37110 ft 500 kts 133°
2026-05-06 12:04 38.87478 30.44899 37117 ft 500 kts 133°
2026-05-06 12:05 38.82759 30.51451 37127 ft 500 kts 133°
2026-05-06 12:05 38.78052 30.58032 37127 ft 500 kts 131°
2026-05-06 12:06 38.73494 30.64756 37111 ft 500 kts 130°
2026-05-06 12:06 38.68999 30.71488 37112 ft 500 kts 131°
2026-05-06 12:07 38.64432 30.78225 37119 ft 501 kts 131°
2026-05-06 12:07 38.59844 30.84919 37121 ft 501 kts 131°
2026-05-06 12:08 38.55237 30.91610 37119 ft 501 kts 131°
2026-05-06 12:08 38.50638 30.98308 37127 ft 501 kts 131°
2026-05-06 12:09 38.46827 31.03858 37130 ft 500 kts 131°
2026-05-06 12:09 38.42205 31.10502 37133 ft 500 kts 132°
2026-05-06 12:10 38.37570 31.17114 37133 ft 500 kts 132°
2026-05-06 12:10 38.32939 31.23724 37130 ft 499 kts 132°
2026-05-06 12:11 38.28317 31.30322 37133 ft 499 kts 132°
2026-05-06 12:11 38.23695 31.36908 37131 ft 499 kts 132°
2026-05-06 12:12 38.19064 31.43480 37133 ft 499 kts 132°
2026-05-06 12:12 38.14462 31.50008 37130 ft 498 kts 132°
2026-05-06 12:13 38.09892 31.56634 37129 ft 498 kts 130°
2026-05-06 12:13 38.05492 31.63423 37113 ft 498 kts 131°
2026-05-06 12:14 38.00947 31.70066 37116 ft 498 kts 133°
2026-05-06 12:14 37.96301 31.76579 37111 ft 498 kts 133°
2026-05-06 12:15 37.91650 31.83085 37112 ft 498 kts 133°
2026-05-06 12:15 37.87021 31.89632 37121 ft 499 kts 133°
2026-05-06 12:16 37.82405 31.96188 37122 ft 498 kts 133°
2026-05-06 12:16 37.77785 32.02736 37115 ft 499 kts 133°
2026-05-06 12:17 37.73154 32.09248 37112 ft 498 kts 133°
2026-05-06 12:17 37.68511 32.15754 37101 ft 498 kts 133°
2026-05-06 12:18 37.63872 32.22264 37099 ft 499 kts 133°
2026-05-06 12:18 37.59231 32.28775 37102 ft 499 kts 133°
2026-05-06 12:19 37.54611 32.35232 37107 ft 499 kts 133°
2026-05-06 12:19 37.49957 32.41719 37100 ft 499 kts 133°
2026-05-06 12:20 37.45297 32.48204 37100 ft 499 kts 134°
2026-05-06 12:20 37.40624 32.54682 37100 ft 499 kts 134°
2026-05-06 12:21 37.35958 32.61147 37078 ft 499 kts 134°
2026-05-06 12:21 37.31289 32.67615 37083 ft 500 kts 134°
2026-05-06 12:22 37.26612 32.74069 37083 ft 500 kts 134°
2026-05-06 12:22 37.21927 32.80522 37082 ft 500 kts 134°
2026-05-06 12:23 37.17243 32.86966 37078 ft 500 kts 134°
2026-05-06 12:23 37.12549 32.93400 37081 ft 500 kts 134°
2026-05-06 12:24 37.07850 32.99827 37078 ft 500 kts 134°
2026-05-06 12:24 37.03156 33.06247 37075 ft 500 kts 134°
2026-05-06 12:25 36.98459 33.12664 37061 ft 500 kts 134°
2026-05-06 12:25 36.93760 33.19068 37057 ft 500 kts 134°
2026-05-06 12:26 36.89294 33.25735 37056 ft 503 kts 123°
2026-05-06 12:26 36.87666 33.29611 37053 ft 504 kts 112°
2026-05-06 12:26 36.86592 33.33708 37051 ft 503 kts 102°
2026-05-06 12:27 36.85915 33.42426 37048 ft 502 kts 91°
2026-05-06 12:27 36.85659 33.51134 37057 ft 503 kts 91°
2026-05-06 12:28 36.85390 33.59807 37057 ft 503 kts 91°
2026-05-06 12:28 36.85106 33.68529 37080 ft 503 kts 91°
2026-05-06 12:29 36.84817 33.77265 37072 ft 504 kts 91°
2026-05-06 12:29 36.84521 33.86010 37068 ft 504 kts 91°
2026-05-06 12:30 36.84226 33.94756 37070 ft 504 kts 91°
2026-05-06 12:30 36.83927 34.03511 37068 ft 505 kts 91°
2026-05-06 12:31 36.83615 34.12266 37070 ft 505 kts 91°
2026-05-06 12:31 36.83292 34.21029 37071 ft 506 kts 92°
2026-05-06 12:32 36.82971 34.29807 37068 ft 506 kts 92°
2026-05-06 12:32 36.82646 34.38576 37088 ft 506 kts 92°
2026-05-06 12:33 36.82308 34.47357 37073 ft 507 kts 92°
2026-05-06 12:33 36.82135 34.51755 36697 ft 504 kts 92°
2026-05-06 12:33 36.81959 34.56091 36260 ft 497 kts 92°
2026-05-06 12:34 36.81781 34.60381 35840 ft 494 kts 92°
2026-05-06 12:34 36.81605 34.64651 35425 ft 493 kts 92°
2026-05-06 12:34 36.81430 34.68926 35010 ft 492 kts 92°
2026-05-06 12:34 36.81255 34.73190 34608 ft 492 kts 92°
2026-05-06 12:35 36.81077 34.77456 34211 ft 493 kts 92°
2026-05-06 12:35 36.80896 34.81728 33774 ft 493 kts 92°
2026-05-06 12:35 36.80715 34.86001 33315 ft 494 kts 92°
2026-05-06 12:35 36.80539 34.90222 32872 ft 494 kts 91°
2026-05-06 12:36 36.80362 34.94502 32424 ft 494 kts 91°
2026-05-06 12:36 36.80182 34.98787 31985 ft 494 kts 91°
2026-05-06 12:36 36.79996 35.03070 31563 ft 495 kts 91°
2026-05-06 12:36 36.79807 35.07362 31137 ft 496 kts 91°
2026-05-06 12:37 36.79615 35.11654 30721 ft 496 kts 91°
2026-05-06 12:37 36.79420 35.15953 30305 ft 496 kts 91°
2026-05-06 12:37 36.79407 35.20241 29852 ft 493 kts 83°
2026-05-06 12:37 36.79848 35.24473 29373 ft 491 kts 77°
2026-05-06 12:38 36.80400 35.28671 28900 ft 490 kts 78°
2026-05-06 12:38 36.80944 35.32856 28434 ft 486 kts 78°
2026-05-06 12:38 36.81477 35.37011 27976 ft 482 kts 78°
2026-05-06 12:38 36.82004 35.41129 27525 ft 479 kts 78°
2026-05-06 12:39 36.82524 35.45209 27081 ft 475 kts 78°
2026-05-06 12:39 36.83037 35.49266 26645 ft 471 kts 78°
2026-05-06 12:39 36.83543 35.53289 26234 ft 468 kts 79°
2026-05-06 12:39 36.84044 35.57286 25809 ft 465 kts 79°
2026-05-06 12:40 36.84545 35.61277 25390 ft 462 kts 79°
2026-05-06 12:40 36.85043 35.65227 24978 ft 459 kts 79°
2026-05-06 12:40 36.85540 35.69140 24579 ft 455 kts 79°
2026-05-06 12:40 36.86035 35.73030 24177 ft 452 kts 79°
2026-05-06 12:41 36.86518 35.76905 23784 ft 449 kts 79°
2026-05-06 12:41 36.86992 35.80741 23346 ft 445 kts 79°
2026-05-06 12:41 36.87462 35.84544 22899 ft 442 kts 79°
2026-05-06 12:41 36.87926 35.88323 22431 ft 439 kts 79°
2026-05-06 12:42 36.88383 35.92037 21983 ft 436 kts 79°
2026-05-06 12:42 36.88849 35.95814 21541 ft 433 kts 79°
2026-05-06 12:42 36.89296 35.99466 21111 ft 430 kts 79°
2026-05-06 12:42 36.89749 36.03154 20683 ft 427 kts 79°
2026-05-06 12:43 36.90198 36.06807 20248 ft 424 kts 80°
2026-05-06 12:43 36.90641 36.10438 19843 ft 422 kts 80°
2026-05-06 12:43 36.91077 36.14051 19432 ft 419 kts 80°
2026-05-06 12:43 36.91509 36.17638 19026 ft 416 kts 80°
2026-05-06 12:44 36.91940 36.21205 18625 ft 414 kts 80°
2026-05-06 12:44 36.92375 36.24750 18209 ft 411 kts 80°
2026-05-06 12:44 36.92807 36.28281 17745 ft 408 kts 81°
2026-05-06 12:44 36.93223 36.31769 17311 ft 405 kts 81°
2026-05-06 12:45 36.93634 36.35251 16893 ft 403 kts 81°
2026-05-06 12:45 36.94044 36.38705 16506 ft 400 kts 81°
2026-05-06 12:45 36.94854 36.45503 15737 ft 395 kts 81°
2026-05-06 12:46 36.95152 36.48912 15355 ft 393 kts 88°
2026-05-06 12:46 36.95174 36.52318 14992 ft 390 kts 90°
2026-05-06 12:46 36.95188 36.55688 14618 ft 386 kts 90°
2026-05-06 12:46 36.95204 36.59041 14257 ft 384 kts 90°
2026-05-06 12:47 36.95222 36.62370 13900 ft 381 kts 90°
2026-05-06 12:47 36.95242 36.65681 13493 ft 379 kts 90°
2026-05-06 12:47 36.95259 36.68966 13096 ft 376 kts 90°
2026-05-06 12:47 36.95276 36.72229 12702 ft 374 kts 90°
2026-05-06 12:48 36.95292 36.75473 12314 ft 373 kts 90°
2026-05-06 12:48 36.95307 36.78703 11931 ft 370 kts 90°
2026-05-06 12:48 36.95321 36.81893 11547 ft 362 kts 90°
2026-05-06 12:48 36.95332 36.85014 11167 ft 355 kts 90°
2026-05-06 12:49 36.95343 36.88059 10796 ft 348 kts 90°
2026-05-06 12:49 36.95354 36.91058 10428 ft 342 kts 90°
2026-05-06 12:49 36.95363 36.93972 10069 ft 336 kts 90°
2026-05-06 12:49 36.95371 36.96868 9680 ft 331 kts 90°
2026-05-06 12:50 36.95378 36.99726 9284 ft 325 kts 90°
2026-05-06 12:50 36.95386 37.02531 8884 ft 321 kts 90°
2026-05-06 12:50 36.95389 37.05303 8502 ft 316 kts 90°
2026-05-06 12:50 36.95393 37.08035 8122 ft 312 kts 91°
2026-05-06 12:51 36.95399 37.10726 7748 ft 307 kts 91°
2026-05-06 12:51 36.95430 37.13335 7367 ft 293 kts 85°
2026-05-06 12:51 36.95849 37.15788 6999 ft 285 kts 70°
2026-05-06 12:51 36.96719 37.17947 6635 ft 272 kts 56°
2026-05-06 12:52 36.97731 37.19886 6261 ft 261 kts 56°
2026-05-06 12:52 36.98692 37.21758 5881 ft 251 kts 59°
2026-05-06 12:52 36.99333 37.23781 5534 ft 250 kts 79°
2026-05-06 12:52 36.99424 37.25893 5398 ft 239 kts 98°
2026-05-06 12:53 36.99071 37.27873 5267 ft 229 kts 107°
2026-05-06 12:53 36.98666 37.29753 5131 ft 215 kts 107°
2026-05-06 12:53 36.98295 37.31498 4827 ft 203 kts 108°
2026-05-06 12:53 36.97934 37.33204 4356 ft 202 kts 105°
2026-05-06 12:54 36.97585 37.34819 4194 ft 184 kts 107°
2026-05-06 12:54 36.97365 37.35825 4027 ft 178 kts 108°
2026-05-06 12:54 36.97058 37.37287 3758 ft 171 kts 109°
2026-05-06 12:54 36.96767 37.38655 3616 ft 156 kts 106°
2026-05-06 12:55 36.96488 37.39914 3432 ft 149 kts 107°
2026-05-06 12:55 36.96207 37.41231 3219 ft 170 kts 104°
2026-05-06 12:55 36.95820 37.43077 2925 ft 159 kts 104°
2026-05-06 12:55 36.95631 37.43960 2758 ft 152 kts 104°
2026-05-06 12:56 36.95364 37.45210 2536 ft 145 kts 104°
2026-05-06 12:56 36.95113 37.46431 2331 ft 143 kts 105°
2026-05-06 12:56 36.94868 37.47586 2291 ft 128 kts 105°
2026-05-06 12:56 36.94660 37.48534 2281 ft 95 kts 105°
2026-05-06 12:57 36.94552 37.49035 2277 ft 34 kts 105°
2026-05-06 12:57 36.94498 37.49288 2279 ft 27 kts 105°
2026-05-06 12:57 36.94424 37.49433 2280 ft 19 kts 172°
2026-05-06 12:57 36.94320 37.49387 2301 ft 15 kts 232°
2026-05-06 12:58 36.94325 37.49281 2287 ft 11 kts 284°
2026-05-06 12:58 36.94349 37.49172 2291 ft 14 kts 285°
2026-05-06 12:58 36.94378 37.49036 2293 ft 18 kts 285°
2026-05-06 12:58 36.94413 37.48874 2287 ft 21 kts 285°
2026-05-06 12:59 36.94451 37.48696 2287 ft 21 kts 285°
2026-05-06 12:59 36.94489 37.48520 2299 ft 21 kts 285°
2026-05-06 12:59 36.94527 37.48346 2294 ft 23 kts 285°
2026-05-06 12:59 36.94571 37.48144 2288 ft 24 kts 285°
2026-05-06 13:00 36.94611 37.47961 2297 ft 18 kts 285°
2026-05-06 13:00 36.94636 37.47840 2291 ft 12 kts 279°
2026-05-06 13:00 36.94596 37.47782 2293 ft 7 kts 226°
2026-05-06 13:00 36.94576 37.47745 2288 ft 5 kts 209°
2026-05-06 13:01 36.94553 37.47736 2288 ft 2 kts 196°
2026-05-06 13:01 36.94547 37.47734 2288 ft 1 kts 196°
2026-05-06 13:01 36.94527 37.47727 2288 ft 2 kts 195°
2026-05-06 13:01 36.94519 37.47724 2302 ft 0 kts 195°
2026-05-06 13:02 36.94516 37.47723 2301 ft 1 kts 195°
2026-05-06 13:02 36.94515 37.47723 2300 ft 0 kts 195°